Regional Weather Roundup
Issued by NWS

Home | Current Version | Previous Version | Text Only | Print | Product List | Glossary On
Versions: 1 2 3 4 5 6 7 8 9 10 11 12 13 14 15 16 17 18 19 20 21 22 23 24 25 26 27 28 29 30 31 32 33 34 35 36 37 38 39 40 41 42 43 44 45 46 47 48 49 50
000
ASUS44 KFWD 270903
RWRTX
NORTH TEXAS HOURLY WEATHER ROUNDUP
NATIONAL WEATHER SERVICE FORT WORTH TX
400 AM CDT FRI APR 27 2018

NOTE: "FAIR" INDICATES FEW OR NO CLOUDS BELOW 12,000 FEET WITH NO
SIGNIFICANT WEATHER AND/OR OBSTRUCTIONS TO VISIBILITY.

TXZ118-119-271000-
DALLAS/FORT WORTH METROPLEX

CITY           SKY/WX    TMP DP  RH WIND       PRES   REMARKS
DFW AIRPORT    MOCLDY    58  52  80 NW5       30.05R
DALLAS LOVE    FAIR      59  51  75 N3        30.05S
FTW MEACHAM    MOCLDY    59  52  77 NW3       30.06F
DAL-EXECUTIVE  FAIR      56  49  77 W5        30.05S
FTW-ALLIANCE   MOCLDY    60  52  74 NW6       30.06S
FTW-NAS-JRB    FAIR      60  51  72 NW6       30.07F
FTW-SPINKS     FAIR      56  50  80 CALM      30.08S
ARLINGTON      FAIR      56  52  86 CALM      30.05F
GRAND PRAIRIE  FAIR      60  49  68 CALM      30.07F
ADDISON        FAIR      57  50  77 CALM      30.08R
MESQUITE       FAIR      54  50  89 NW3       30.06R
LANCASTER      FAIR      53  49  87 CALM      30.06S
$$

TXZ091>094-102>105-117-120-121-131>134-271000-
NORTH CENTRAL TEXAS

CITY           SKY/WX    TMP DP  RH WIND       PRES   REMARKS
SHRMAN/DENISON FAIR      49  47  92 CALM      30.07R
GAINESVILLE    FAIR      54  50  86 CALM      30.09S
BOWIE          CLOUDY    57  52  84 NW7       30.08S
BRIDGEPORT     CLOUDY    59  51  75 NW3       30.10S
DECATUR        MOCLDY    56  49  76 CALM      30.07R
DENTON         MOCLDY    54  52  93 CALM      30.06F
MCKINNEY       FAIR      52  50  93 CALM      30.06R
BONHAM         FAIR      49  47  93 W3        30.06R
ROCKWALL       FAIR      53  51  95 MISG      30.06R FOG
TERRELL        FAIR      54  49  83 CALM      30.05S
WAXAHACHIE     FAIR      54  50  86 CALM      30.07S
CLEBURNE       CLOUDY    54  50  87 NW5       30.09R
GRANBURY       MOCLDY    54  49  82 W5        30.10R
$$

TXZ083>090-098>101-113>116-127>130-139>142-154-155-271000-
WESTERN NORTH TEXAS

CITY           SKY/WX    TMP DP  RH WIND       PRES   REMARKS
WICHITA FALLS  FAIR      53  50  89 NW8       30.09S
WF-KICKAPOO    FAIR      57  49  73 NW8       30.12R
VERNON         FAIR      53  51  92 NW9       30.13S
ABILENE        FAIR      52  49  89 E5        30.11F
ABILENE-DYESS  FAIR      53  45  74 NW6       30.12F
GRAHAM           N/A     56  51  84 CALM      30.09S
BRECKENRIDGE   CLOUDY    57  50  78 CALM      30.11S
CISCO          CLOUDY    55  50  82 N7        30.12F
EASTLAND       CLOUDY    56  49  79 N5        30.11S
RANGER         CLOUDY    55  49  80 NW5       30.11S
MINERAL WELLS  CLOUDY    55  49  80 NW5       30.08R
STEPHENVILLE   FAIR      53  49  85 NW5       30.12R
COMANCHE       MOCLDY    53  50  89 NW3       30.11F
BROWNWOOD      MOCLDY    57  45  62 NE6       30.09F
COLEMAN        FAIR      57  46  65 N13       30.09S
BRADY          CLOUDY    57  45  62 NE13      30.07R
$$

TXZ143>147-156>162-174-175-271000-
CENTRAL TEXAS

CITY           SKY/WX    TMP DP  RH WIND       PRES   REMARKS
WACO           FAIR      54  48  80 NW3       30.06R
WACO-MCGREGOR  MOCLDY    55  48  77 NW6       30.07R
HILLSBORO      FAIR      53  50  89 N3        30.07R
CORSICANA      FAIR      54  51  90 N6        30.05S
MEXIA          FAIR      53  48  82 NW6       30.04S
HEARNE         FAIR      49  48  97 CALM      30.04R
CAMERON        FAIR      52  49  89 NW7       30.06R
TEMPLE         LGT RAIN  56  50  80 NW5       30.07R
KILLEEN        NOT AVBL
KILLEEN-SKYLRK LGT RAIN  55  52  89 CALM      30.07R
FORT HOOD      MOCLDY    55  51  86 NW3       30.03F
GATESVILLE     FAIR      55  48  76 CALM      30.09S
HAMILTON       FAIR      52  49  87 NW8       30.10F
LAMPASAS       MOCLDY    55  48  75 N6        30.07F
$$

TXZ095>097-106>112-122>126-135>138-148>153-164>167-271000-
EAST TEXAS

CITY           SKY/WX    TMP DP  RH WIND       PRES   REMARKS
PARIS          FAIR      50  47  89 NW6       30.04S
SULPHUR SPRNGS FAIR      52  51  95 CALM      30.06S
MOUNT PLEASANT FAIR      50  49  96 NW3       30.05S
GILMER         FAIR      53  50  91 CALM      30.03R
MINEOLA        FAIR      50  48  93 CALM      30.04S
TYLER          FAIR      53  51  93 N5        30.03R
LONGVIEW       FAIR      52  52 100 NW3       30.01S
MARSHALL       FAIR      50  48  93 CALM      30.03S
ATHENS         FAIR      52  50  93 CALM      30.03R
PALESTINE      FAIR      52  50  93 CALM      30.04S
JACKSONVILLE   FAIR      55  51  88 N3        30.04S
HENDERSON      FAIR      49  49  99 CALM      30.03S
CENTER         FAIR      50  49  95 NW3       30.02R
NACOGDOCHES      N/A     48  48 100 CALM      30.02S
LUFKIN         FAIR      51  50  96 CALM      30.02R
$$

SUPPLEMENTAL OBSERVATIONS (NWS FORT WORTH AREA)

CITY           SKY/WX    TMP DP  RH WIND       PRES   REMARKS
$$

SUPPLEMENTAL OBSERVATIONS (NWS NORMAN AREA)

CITY           SKY/WX    TMP DP  RH WIND       PRES   REMARKS
GOODLETT         N/A     49  45  87 W12       30.15S
ODELL            N/A     49  48  95 NW8       30.15S
CROWELL          N/A     50  48  92 NW10      30.15S
KNOX CITY        N/A     51  47  84 NW9       30.15S
SEYMOUR          N/A     51  50  95 NW8       30.12S
$$

SUPPLEMENTAL OBSERVATIONS (NWS SAN ANGELO AREA)

CITY           SKY/WX    TMP DP  RH WIND       PRES   REMARKS
WEINERT          N/A     50  46  87 NW8       30.14S
HASKELL          N/A     50  43  78 NW8       30.13R
THROCKMORTON     N/A     55  50  84 NW3       30.12S
STAMFORD         N/A     55  45  70 N8        30.13S
CLYDE            N/A     52  47  84 E3        30.13F
$$

SUPPLEMENTAL OBSERVATIONS (NWS SHREVEPORT AREA)

CITY           SKY/WX    TMP DP  RH WIND       PRES   REMARKS
$$

SUPPLEMENTAL OBSERVATIONS ARE A COLLECTION OF AUTOMATED INSTRUMENTS
THAT ARE MAINTAINED BY A VARIETY OF FEDERAL AND STATE AGENCIES.
CERTAIN ELEMENTS...SUCH AS HUMIDITY VALUES AND SUSTAINED WIND
SPEEDS...MAY BE APPROXIMATED.





USA.gov is the U.S. government's official web portal to all federal, state and local government web resources and services.